Time,TemperatureF,DewpointF,PressureIn,WindDirection,WindDirectionDegrees,WindSpeedMPH,WindSpeedGustMPH,Humidity,HourlyPrecipIn,Conditions,Clouds,dailyrainin,SoftwareType,DateUTC
2013-02-28 00:14:00,38.6,37.0,29.71,NW,315,0.0,0.0,92,0.00,,,0.00,weatherlink.com 1.10,2013-02-28 05:14:00,
2013-02-28 00:29:00,38.7,37.0,29.72,NW,314,0.0,0.0,93,0.00,,,0.00,weatherlink.com 1.10,2013-02-28 05:29:00,
2013-02-28 00:44:00,39.1,37.0,29.72,NW,315,0.0,1.0,91,0.00,,,0.00,weatherlink.com 1.10,2013-02-28 05:44:00,
2013-02-28 00:59:00,38.6,37.0,29.73,North,356,2.0,3.0,92,0.00,,,0.00,weatherlink.com 1.10,2013-02-28 05:59:00,
2013-02-28 01:14:00,39.4,37.0,29.73,WNW,288,0.0,1.0,91,0.00,,,0.00,weatherlink.com 1.10,2013-02-28 06:14:00,
2013-02-28 01:29:00,39.4,37.0,29.73,West,264,0.0,1.0,91,0.00,,,0.00,weatherlink.com 1.10,2013-02-28 06:29:00,
2013-02-28 01:44:00,38.6,36.0,29.74,NNW,328,1.0,2.0,90,0.00,,,0.00,weatherlink.com 1.10,2013-02-28 06:44:00,
2013-02-28 01:59:00,37.7,36.0,29.74,NNW,328,0.0,0.0,92,0.00,,,0.00,weatherlink.com 1.10,2013-02-28 06:59:00,
2013-02-28 02:14:00,37.0,36.0,29.73,NNW,328,0.0,0.0,94,0.00,,,0.00,weatherlink.com 1.10,2013-02-28 07:14:00,
2013-02-28 02:29:00,36.8,36.0,29.73,NNW,328,0.0,0.0,95,0.00,,,0.00,weatherlink.com 1.10,2013-02-28 07:29:00,
2013-02-28 02:44:00,36.3,35.0,29.73,NNW,328,0.0,0.0,95,0.00,,,0.00,weatherlink.com 1.10,2013-02-28 07:44:00,
2013-02-28 02:59:00,35.7,34.0,29.73,NNW,328,0.0,0.0,94,0.00,,,0.00,weatherlink.com 1.10,2013-02-28 07:59:00,
2013-02-28 03:14:00,34.6,33.0,29.73,NNW,328,0.0,0.0,94,0.00,,,0.00,weatherlink.com 1.10,2013-02-28 08:14:00,
2013-02-28 03:29:00,33.9,33.0,29.73,NNW,328,0.0,0.0,95,0.00,,,0.00,weatherlink.com 1.10,2013-02-28 08:29:00,
2013-02-28 03:44:00,33.3,32.0,29.73,NNW,328,0.0,0.0,95,0.00,,,0.00,weatherlink.com 1.10,2013-02-28 08:44:00,
2013-02-28 03:59:00,33.0,32.0,29.73,NNW,328,0.0,0.0,96,0.00,,,0.00,weatherlink.com 1.10,2013-02-28 08:59:00,
2013-02-28 04:14:00,32.7,32.0,29.74,NNW,328,0.0,0.0,96,0.00,,,0.00,weatherlink.com 1.10,2013-02-28 09:14:00,
2013-02-28 04:29:00,32.5,32.0,29.74,NNW,328,0.0,1.0,97,0.00,,,0.00,weatherlink.com 1.10,2013-02-28 09:29:00,
2013-02-28 04:44:00,32.6,32.0,29.75,NW,326,0.0,0.0,97,0.00,,,0.00,weatherlink.com 1.10,2013-02-28 09:44:00,
2013-02-28 04:59:00,32.6,32.0,29.75,NW,321,0.0,1.0,97,0.00,,,0.00,weatherlink.com 1.10,2013-02-28 09:59:00,
2013-02-28 05:14:00,32.7,32.0,29.75,NW,320,0.0,0.0,97,0.00,,,0.00,weatherlink.com 1.10,2013-02-28 10:14:00,
2013-02-28 05:29:00,33.5,33.0,29.76,NW,320,0.0,1.0,97,0.00,,,0.00,weatherlink.com 1.10,2013-02-28 10:29:00,
2013-02-28 05:45:00,33.7,33.0,29.77,NW,321,0.0,0.0,97,0.00,,,0.00,weatherlink.com 1.10,2013-02-28 10:45:00,
2013-02-28 06:00:00,34.1,33.0,29.77,NW,321,0.0,0.0,97,0.00,,,0.00,weatherlink.com 1.10,2013-02-28 11:00:00,
2013-02-28 06:15:00,34.6,34.0,29.77,SSW,207,0.0,1.0,97,0.00,,,0.00,weatherlink.com 1.10,2013-02-28 11:15:00,
2013-02-28 06:30:00,34.5,34.0,29.77,SSW,208,0.0,0.0,97,0.00,,,0.00,weatherlink.com 1.10,2013-02-28 11:30:00,
2013-02-28 06:45:00,34.4,34.0,29.77,SSW,208,0.0,0.0,97,0.00,,,0.00,weatherlink.com 1.10,2013-02-28 11:45:00,
2013-02-28 07:00:00,34.5,34.0,29.78,SSW,208,0.0,0.0,97,0.00,,,0.00,weatherlink.com 1.10,2013-02-28 12:00:00,
2013-02-28 07:15:00,34.9,34.0,29.78,SSW,208,0.0,1.0,97,0.00,,,0.00,weatherlink.com 1.10,2013-02-28 12:15:00,
2013-02-28 07:30:00,35.2,35.0,29.79,SSW,208,0.0,0.0,97,0.00,,,0.00,weatherlink.com 1.10,2013-02-28 12:30:00,
2013-02-28 07:45:00,36.1,35.0,29.79,SSW,207,0.0,1.0,97,0.00,,,0.00,weatherlink.com 1.10,2013-02-28 12:45:00,
2013-02-28 08:00:00,37.0,36.0,29.79,SSW,207,0.0,0.0,97,0.00,,,0.00,weatherlink.com 1.10,2013-02-28 13:00:00,
2013-02-28 08:15:00,37.7,37.0,29.79,SSW,208,0.0,0.0,96,0.00,,,0.00,weatherlink.com 1.10,2013-02-28 13:15:00,
2013-02-28 08:30:00,38.6,37.0,29.80,SSW,208,0.0,0.0,93,0.00,,,0.00,weatherlink.com 1.10,2013-02-28 13:30:00,
2013-02-28 08:45:00,39.9,37.0,29.80,SSW,207,0.0,0.0,90,0.00,,,0.00,weatherlink.com 1.10,2013-02-28 13:45:00,
2013-02-28 09:00:00,40.8,38.0,29.79,SSW,207,0.0,0.0,91,0.00,,,0.00,weatherlink.com 1.10,2013-02-28 14:00:00,
2013-02-28 09:15:00,41.3,38.0,29.79,SSW,208,0.0,0.0,88,0.00,,,0.00,weatherlink.com 1.10,2013-02-28 14:15:00,
2013-02-28 09:30:00,41.7,39.0,29.79,SSW,207,0.0,0.0,89,0.00,,,0.00,weatherlink.com 1.10,2013-02-28 14:30:00,
2013-02-28 09:45:00,42.2,39.0,29.79,SW,219,0.0,0.0,87,0.00,,,0.00,weatherlink.com 1.10,2013-02-28 14:45:00,
2013-02-28 10:00:00,42.6,39.0,29.79,SW,219,0.0,1.0,86,0.00,,,0.00,weatherlink.com 1.10,2013-02-28 15:00:00,
2013-02-28 10:15:00,43.2,39.0,29.79,West,269,1.0,1.0,84,0.00,,,0.00,weatherlink.com 1.10,2013-02-28 15:15:00,
2013-02-28 10:30:00,43.6,39.0,29.79,West,260,0.0,2.0,85,0.00,,,0.00,weatherlink.com 1.10,2013-02-28 15:30:00,
2013-02-28 10:45:00,44.1,34.0,29.78,NW,312,1.0,3.0,69,0.00,,,0.00,weatherlink.com 1.10,2013-02-28 15:45:00,
2013-02-28 11:00:00,44.7,35.0,29.79,WNW,283,1.0,5.0,69,0.00,,,0.00,weatherlink.com 1.10,2013-02-28 16:00:00,
2013-02-28 11:15:00,46.1,36.0,29.79,NNW,328,3.0,4.0,68,0.00,,,0.00,weatherlink.com 1.10,2013-02-28 16:15:00,
2013-02-28 11:30:00,46.5,34.0,29.79,NW,304,1.0,7.0,63,0.00,,,0.00,weatherlink.com 1.10,2013-02-28 16:30:00,
2013-02-28 11:45:00,46.5,33.0,29.78,NW,321,4.0,6.0,59,0.00,,,0.00,weatherlink.com 1.10,2013-02-28 16:45:00,
2013-02-28 12:00:00,46.5,31.0,29.78,SE,141,1.0,9.0,55,0.00,,,0.00,weatherlink.com 1.10,2013-02-28 17:00:00,
2013-02-28 12:18:00,46.6,31.0,29.78,NW,310,2.0,6.0,55,0.00,,,0.00,weatherlink.com 1.10,2013-02-28 17:18:00,
2013-02-28 12:30:00,46.9,31.0,29.77,NW,318,4.0,8.0,55,0.00,,,0.00,weatherlink.com 1.10,2013-02-28 17:30:00,
2013-02-28 12:45:00,46.6,31.0,29.77,NW,307,3.0,7.0,54,0.00,,,0.00,weatherlink.com 1.10,2013-02-28 17:45:00,
2013-02-28 13:00:00,46.7,31.0,29.77,WNW,295,4.0,6.0,55,0.00,,,0.00,weatherlink.com 1.10,2013-02-28 18:00:00,
2013-02-28 13:17:00,46.8,31.0,29.77,NNW,336,2.0,7.0,55,0.00,,,0.00,weatherlink.com 1.10,2013-02-28 18:17:00,
2013-02-28 13:31:00,46.7,30.0,29.76,WNW,297,6.0,6.0,52,0.00,,,0.00,weatherlink.com 1.10,2013-02-28 18:31:00,
2013-02-28 13:46:00,47.4,30.0,29.75,West,271,1.0,5.0,52,0.00,,,0.00,weatherlink.com 1.10,2013-02-28 18:46:00,
2013-02-28 14:01:00,47.1,30.0,29.76,WNW,290,2.0,7.0,51,0.00,,,0.00,weatherlink.com 1.10,2013-02-28 19:01:00,
2013-02-28 14:17:00,46.5,28.0,29.76,NNW,328,3.0,9.0,49,0.00,,,0.00,weatherlink.com 1.10,2013-02-28 19:17:00,
2013-02-28 14:31:00,47.3,27.0,29.76,SW,232,1.0,12.0,46,0.00,,,0.00,weatherlink.com 1.10,2013-02-28 19:31:00,
2013-02-28 14:46:00,49.4,26.0,29.76,WNW,300,5.0,13.0,40,0.00,,,0.00,weatherlink.com 1.10,2013-02-28 19:46:00,
2013-02-28 15:01:00,48.8,26.0,29.76,NW,307,5.0,12.0,42,0.00,,,0.00,weatherlink.com 1.10,2013-02-28 20:01:00,
2013-02-28 15:17:00,49.7,26.0,29.76,WNW,299,4.0,11.0,40,0.00,,,0.00,weatherlink.com 1.10,2013-02-28 20:17:00,
2013-02-28 15:31:00,49.5,25.0,29.77,West,278,8.0,10.0,39,0.00,,,0.00,weatherlink.com 1.10,2013-02-28 20:31:00,
2013-02-28 15:46:00,48.1,26.0,29.77,WNW,295,3.0,9.0,43,0.00,,,0.00,weatherlink.com 1.10,2013-02-28 20:46:00,
2013-02-28 16:01:00,48.3,25.0,29.77,NW,307,4.0,13.0,40,0.00,,,0.00,weatherlink.com 1.10,2013-02-28 21:01:00,
2013-02-28 16:19:00,47.7,27.0,29.77,WNW,301,3.0,10.0,44,0.00,,,0.00,weatherlink.com 1.10,2013-02-28 21:19:00,
2013-02-28 16:32:00,47.4,26.0,29.78,WNW,295,2.0,11.0,44,0.00,,,0.00,weatherlink.com 1.10,2013-02-28 21:32:00,
2013-02-28 16:46:00,47.1,26.0,29.78,NW,307,5.0,12.0,44,0.00,,,0.00,weatherlink.com 1.10,2013-02-28 21:46:00,
2013-02-28 17:02:00,46.8,26.0,29.79,WNW,301,6.0,11.0,45,0.00,,,0.00,weatherlink.com 1.10,2013-02-28 22:02:00,
2013-02-28 17:17:00,46.7,26.0,29.80,NW,312,4.0,13.0,45,0.00,,,0.00,weatherlink.com 1.10,2013-02-28 22:17:00,
2013-02-28 17:33:00,47.1,27.0,29.80,NNW,338,4.0,9.0,46,0.00,,,0.00,weatherlink.com 1.10,2013-02-28 22:33:00,
2013-02-28 17:47:00,46.5,27.0,29.80,West,275,3.0,5.0,47,0.00,,,0.00,weatherlink.com 1.10,2013-02-28 22:47:00,
2013-02-28 18:02:00,45.6,26.0,29.80,NW,308,5.0,7.0,47,0.00,,,0.00,weatherlink.com 1.10,2013-02-28 23:02:00,
2013-02-28 18:17:00,44.8,27.0,29.81,NW,309,1.0,5.0,49,0.00,,,0.00,weatherlink.com 1.10,2013-02-28 23:17:00,
2013-02-28 18:32:00,43.8,26.0,29.81,WNW,286,1.0,4.0,50,0.00,,,0.00,weatherlink.com 1.10,2013-02-28 23:32:00,
2013-02-28 18:48:00,43.4,27.0,29.82,WNW,300,3.0,4.0,52,0.00,,,0.00,weatherlink.com 1.10,2013-02-28 23:48:00,
2013-02-28 19:03:00,42.7,26.0,29.83,WNW,288,1.0,4.0,53,0.00,,,0.00,weatherlink.com 1.10,2013-03-01 00:03:00,
2013-02-28 19:18:00,42.0,26.0,29.83,WNW,297,2.0,4.0,54,0.00,,,0.00,weatherlink.com 1.10,2013-03-01 00:18:00,
2013-02-28 19:33:00,41.3,26.0,29.84,NW,316,1.0,3.0,56,0.00,,,0.00,weatherlink.com 1.10,2013-03-01 00:33:00,
2013-02-28 19:48:00,41.3,26.0,29.84,NNW,332,3.0,7.0,56,0.00,,,0.00,weatherlink.com 1.10,2013-03-01 00:48:00,
2013-02-28 20:04:00,41.2,26.0,29.85,WNW,302,3.0,5.0,56,0.00,,,0.00,weatherlink.com 1.10,2013-03-01 01:04:00,
2013-02-28 20:19:00,40.8,26.0,29.84,NW,309,2.0,6.0,56,0.00,,,0.00,weatherlink.com 1.10,2013-03-01 01:19:00,
2013-02-28 20:34:00,41.3,26.0,29.84,NW,311,4.0,8.0,54,0.00,,,0.00,weatherlink.com 1.10,2013-03-01 01:34:00,
2013-02-28 20:49:00,41.0,26.0,29.84,WNW,302,2.0,9.0,55,0.00,,,0.00,weatherlink.com 1.10,2013-03-01 01:49:00,
2013-02-28 21:04:00,40.8,26.0,29.86,NW,309,3.0,6.0,56,0.00,,,0.00,weatherlink.com 1.10,2013-03-01 02:04:00,
2013-02-28 21:19:00,40.5,26.0,29.86,NW,305,3.0,6.0,56,0.00,,,0.00,weatherlink.com 1.10,2013-03-01 02:19:00,
2013-02-28 21:34:00,40.2,26.0,29.86,WNW,291,1.0,6.0,57,0.00,,,0.00,weatherlink.com 1.10,2013-03-01 02:34:00,
2013-02-28 21:49:00,39.5,26.0,29.86,WNW,298,0.0,3.0,58,0.00,,,0.00,weatherlink.com 1.10,2013-03-01 02:49:00,
2013-02-28 22:04:00,38.5,26.0,29.86,NW,305,0.0,2.0,61,0.00,,,0.00,weatherlink.com 1.10,2013-03-01 03:04:00,
2013-02-28 22:19:00,37.6,26.0,29.87,West,278,0.0,2.0,63,0.00,,,0.00,weatherlink.com 1.10,2013-03-01 03:19:00,
2013-02-28 22:35:00,36.7,27.0,29.87,NW,304,0.0,0.0,69,0.00,,,0.00,weatherlink.com 1.10,2013-03-01 03:35:00,
2013-02-28 22:52:00,34.5,26.0,29.87,NW,304,0.0,0.0,71,0.00,,,0.00,weatherlink.com 1.10,2013-03-01 03:52:00,
2013-02-28 23:05:00,34.4,26.0,29.87,NW,304,0.0,1.0,70,0.00,,,0.00,weatherlink.com 1.10,2013-03-01 04:05:00,
2013-02-28 23:20:00,34.4,26.0,29.87,NW,304,0.0,0.0,71,0.00,,,0.00,weatherlink.com 1.10,2013-03-01 04:20:00,
2013-02-28 23:35:00,33.4,26.0,29.87,NW,304,0.0,0.0,74,0.00,,,0.00,weatherlink.com 1.10,2013-03-01 04:35:00,
2013-02-28 23:50:00,32.4,26.0,29.87,NW,304,0.0,0.0,77,0.00,,,0.00,weatherlink.com 1.10,2013-03-01 04:50:00,